Lid_Strength_Index
12 11 11 11 12 10 9 8 7 7 7 7 8 7 7 6 6 4 3 3 3 3 3 3 3 3 4 5 5 6 8 9 12 13 12 11 11 11 10 9 8 9 10
12 11 11 11 12 11 10 9 8 8 8 8 8 8 7 6 5 4 3 3 3 3 3 3 4 4 5 6 6 7 8 9 11 13 13 12 12 11 10 10 10 9 10
12 11 11 12 13 10 9 9 9 9 8 8 8 8 7 6 5 4 3 3 4 4 4 4 4 4 5 6 6 8 8 9 10 12 13 13 12 11 11 10 11 11 10
13 11 12 12 10 10 10 9 8 8 7 7 6 6 6 5 4 4 4 4 4 4 4 4 4 4 4 5 7 8 10 10 11 12 13 13 12 12 11 12 13 13 13
12 12 12 11 10 10 11 10 10 9 9 8 7 7 7 7 6 6 6 6 6 7 7 6 5 7 9 7 7 9 10 11 11 12 14 13 14 13 12 13 13 13 13
13 13 11 10 10 10 10 10 10 10 10 9 10 10 10 10 11 10 8 8 9 9 10 10 10 11 10 10 10 10 10 10 11 11 13 13 12 12 13 13 13 13 13
14 13 11 11 11 11 10 10 10 11 11 11 11 11 11 11 11 11 11 10 10 10 10 11 11 11 11 11 12 12 13 11 11 10 11 13 12 12 13 13 13 13 13
14 12 11 11 12 12 12 11 10 10 11 11 11 11 12 11 11 11 12 11 12 12 11 11 11 11 12 12 13 14 14 13 13 13 13 13 12 12 11 11 12 13 13
15 12 12 12 13 12 12 12 11 11 11 12 11 11 12 12 12 11 11 12 13 14 14 13 11 12 12 12 14 15 16 15 11 11 11 10 10 10 11 13 13 16 16
15 13 12 12 12 13 12 13 13 13 13 13 13 13 14 12 12 12 12 13 14 15 15 14 14 13 13 13 15 17 17 17 16 16 15 14 14 14 13 13 14 16 18
14 14 13 12 13 13 13 13 13 13 13 13 13 13 13 13 12 12 12 14 15 15 15 15 14 12 12 11 12 14 15 15 15 17 18 18 18 19 19 18 17 16 15
14 14 14 14 13 13 14 14 14 13 13 13 14 14 14 13 12 12 12 13 13 15 15 14 13 11 11 12 13 12 14 17 19 20 20 21 22 22 22 21 21 20 18
14 14 14 14 14 14 14 14 14 14 14 15 15 15 16 15 13 11 12 12 12 14 13 12 12 12 13 14 15 16 20 20 20 20 20 22 23 24 24 23 22 23 22
14 14 14 14 15 14 14 14 14 14 15 17 17 17 17 17 15 15 14 14 14 14 15 17 15 15 16 18 18 18 18 18 19 20 23 23 24 23 20 24 23 24 20
14 14 14 14 14 15 15 14 14 15 14 15 16 16 17 17 16 16 16 16 16 16 19 22 22 21 18 17 17 17 17 19 19 21 20 21 21 20 21 24 23 21 20
14 14 14 14 14 15 15 15 13 13 13 14 15 16 19 15 14 14 14 14 15 15 21 18 18 17 17 18 18 18 18 21 25 22 22 22 22 22 21 21 21 21 22
13 14 14 14 15 15 16 15 16 15 13 14 14 14 14 15 14 14 14 14 14 15 17 17 17 18 19 18 19 20 21 25 27 23 23 24 23 23 23 23 25 23 25
13 14 14 14 14 15 15 16 16 16 17 17 15 14 13 14 13 13 13 14 17 17 17 17 18 18 20 20 21 24 25 25 26 25 25 26 26 28 27 28 29 32 32
14 14 13 14 14 15 16 16 17 18 17 17 16 15 15 13 13 13 14 16 16 17 17 18 18 21 23 24 25 26 26 28 30 28 31 28 30 27 30 33 31 31 33
13 13 14 14 15 16 17 17 18 18 18 17 17 16 14 15 16 17 17 17 18 19 21 20 21 24 25 25 26 26 27 28 29 29 31 30 31 31 31 32 33 31 36
14 14 14 15 15 16 17 18 18 17 17 17 17 15 14 16 17 18 19 20 21 21 23 24 24 26 27 27 27 28 29 32 31 31 30 33 35 33 35 33 35 37 37
14 14 14 14 15 16 17 18 18 18 17 17 15 15 14 17 18 19 21 22 22 22 23 24 27 29 28 27 28 28 29 31 33 32 32 33 32 34 35 35 34 36 35
14 15 15 15 15 16 17 18 18 17 17 16 15 16 17 19 20 21 23 23 24 24 25 26 28 31 33 33 34 30 28 30 31 31 31 33 33 35 37 35 37 36 35
14 14 15 15 16 16 17 17 17 17 16 16 17 18 19 20 21 22 23 24 24 25 25 27 28 30 32 34 35 35 34 38 37 33 31 31 33 34 34 36 37 38 35
14 14 14 15 16 16 17 17 16 15 16 18 18 19 20 21 22 23 24 24 25 26 27 28 29 30 31 32 32 33 30 33 36 34 33 33 33 35 35 34 38 37 37
14 14 14 15 15 15 16 16 16 17 18 19 20 21 22 22 23 24 25 25 26 27 28 29 30 31 31 31 33 31 30 29 33 33 34 31 32 34 34 35 36 35 37